La Paz, Mexico

1:53 AM MST on January 23, 2018 (GMT -0700)
Gen Manuel Marquez De Leon

Weather History for MMLP - February, 2014

Change the Weather History Date:

Friday, February 28, 2014

  Actual Average Record
Temperature  
Mean Temperature 76 °F -  
Max Temperature 95 °F 81 °F 95 °F (2014)
Min Temperature 58 °F 54 °F 48 °F (2003)
Cooling Degree Days 12    
Growing Degree Days 26 (Base 50)    
Moisture  
Dew Point 43 °F    
Average Humidity 34    
Maximum Humidity 78    
Minimum Humidity 8    
Precipitation  
Precipitation 0.00 in - - ()
Sea Level Pressure  
Sea Level Pressure 29.93 in    
Wind  
Wind Speed 6 mph ()    
Max Wind Speed 14 mph    
Max Gust Speed -    
Visibility 9.5 miles    
Events      
Averages and records for this station are not official NWS values.
T = Trace of Precipitation, MM = Missing Value Source: Averaged Metar Reports

Daily Weather History Graph

Daily Weather History Graph

Search for Another Location

Airport or City:

Trip Planner

Search our weather history database for the weather conditions in past years. The results will help you decide how hot, cold, wet, or windy it might be!

Date:

Astronomy

Feb. 28, 2014 Rise Set
Actual Time 6:44 AM MST 6:23 PM MST
Civil Twilight 6:21 AM MST 6:46 PM MST
Nautical Twilight 5:55 AM MST 7:12 PM MST
Astronomical Twilight 5:28 AM MST 7:39 PM MST
Moon 6:00 AM MST (2/28) 6:02 PM MST (2/28)
Length of Visible Light 12h 24m
Length of Day
11h 39m
Waning Crescent, 0% of the Moon is Illuminated
Feb 28
Waning Crescent
Mar 1
New
Mar 8
First Quarter
Mar 16
Full
Mar 23
Last Quarter

Hourly Weather History & Observations

Time (MST) Temp. Dew Point Humidity Pressure Visibility Wind Dir Wind Speed Gust Speed Precip Events Conditions
1:50 AM 67 °F 54 °F 53% 29.88 in 2 mi South 4.5 mph - -  
4:50 AM 65 °F 50 °F 48% 29.88 in 2 mi South 4.5 mph - -  
6:07 AM 57.2 °F 48.2 °F 72% 29.92 in 10.0 mi South 10.4 mph - N/A   Partly Cloudy
7:15 AM 67 °F 51 °F 45% 29.93 in 2 mi South 4.5 mph - -  
7:48 AM 60.8 °F 50.0 °F 68% 29.95 in 10.0 mi South 11.5 mph - N/A   Clear
8:49 AM 71.6 °F 51.8 °F 50% 29.96 in 10.0 mi South 10.4 mph - N/A   Clear
9:40 AM 80.6 °F 35.6 °F 20% 29.97 in 10.0 mi South 5.8 mph - N/A   Clear
10:40 AM 86.0 °F 28.4 °F 12% 29.96 in 10.0 mi SSE 3.5 mph - N/A   Clear
10:50 AM 89 °F 40 °F 10% 29.96 in 19 mi South 4.5 mph - -  
11:51 AM 89.6 °F 28.4 °F 11% 29.94 in 10.0 mi Calm Calm - N/A   Clear
12:40 PM 91.4 °F 28.4 °F 10% 29.91 in 10.0 mi SW 10.4 mph - N/A   Clear
1:40 PM 91.4 °F 33.8 °F 13% 29.90 in 10.0 mi SW 13.8 mph - N/A   Clear
1:50 PM 95 °F 40 °F 8% 29.88 in 19 mi NW 6.7 mph - -  
2:40 PM 91.4 °F 26.6 °F 10% 29.88 in 10.0 mi WSW 8.1 mph - N/A   Clear
3:42 PM 89.6 °F 32.0 °F 13% 29.88 in 10.0 mi WSW 8.1 mph - N/A   Clear
4:40 PM 91 °F 41 °F 10% 29.91 in 19 mi West 6.7 mph - -  
4:42 PM 89.6 °F 32.0 °F 13% 29.88 in 10.0 mi WSW 9.2 mph - N/A   Clear
5:43 PM 86.0 °F 32.0 °F 14% 29.90 in 10.0 mi WSW 9.2 mph - N/A   Clear
6:49 PM 78.8 °F 41.0 °F 26% 29.92 in 10.0 mi SSW 6.9 mph - N/A   Clear
7:40 PM 78 °F 52 °F 30% 29.97 in 2 mi South 8.9 mph - -  
8:48 PM 69.8 °F 57.2 °F 64% 29.99 in 10.0 mi South 11.5 mph - N/A   Clear
9:51 PM 68.0 °F 57.2 °F 68% 30.00 in 10.0 mi South 11.5 mph - N/A   Clear
10:43 PM 66.2 °F 59.0 °F 78% 30.00 in 10.0 mi South 9.2 mph - N/A   Clear
10:50 PM 69 °F 60 °F 66% 29.99 in 2 mi South 8.9 mph - -   Partly Cloudy